Time,TemperatureF,DewpointF,PressureIn,WindDirection,WindDirectionDegrees,WindSpeedMPH,WindSpeedGustMPH,Humidity,HourlyPrecipIn,Conditions,Clouds,dailyrainin,SoftwareType,DateUTC
2013-08-24 00:11:00,69.8,69.2,29.81,West,270,0.0,-999.0,98,-99.99,,,0.00,Acu-Link.com,2013-08-24 04:11:00,
2013-08-24 00:26:00,70.0,69.4,29.81,East,90,0.0,-999.0,98,-99.99,,,0.00,Acu-Link.com,2013-08-24 04:26:00,
2013-08-24 00:41:00,69.4,68.8,29.81,NW,315,0.0,-999.0,98,-99.99,,,0.00,Acu-Link.com,2013-08-24 04:41:00,
2013-08-24 00:56:00,69.1,68.5,29.80,SW,225,0.0,-999.0,98,-99.99,,,0.00,Acu-Link.com,2013-08-24 04:56:00,
2013-08-24 01:11:00,69.1,68.5,29.80,SSW,202,0.0,-999.0,98,-99.99,,,0.00,Acu-Link.com,2013-08-24 05:11:00,
2013-08-24 01:26:00,68.9,68.3,29.79,SSE,157,0.0,-999.0,98,-99.99,,,0.00,Acu-Link.com,2013-08-24 05:26:00,
2013-08-24 01:41:00,68.7,68.1,29.81,SW,225,0.0,-999.0,98,-99.99,,,0.00,Acu-Link.com,2013-08-24 05:41:00,
2013-08-24 01:57:00,68.4,67.8,29.79,North,0,0.0,-999.0,98,-99.99,,,0.00,Acu-Link.com,2013-08-24 05:57:00,
2013-08-24 02:12:00,68.9,68.3,29.79,SSW,202,2.2,-999.0,98,-99.99,,,0.00,Acu-Link.com,2013-08-24 06:12:00,
2013-08-24 02:27:00,68.4,67.8,29.79,NNE,22,0.0,-999.0,98,-99.99,,,0.00,Acu-Link.com,2013-08-24 06:27:00,
2013-08-24 02:42:00,68.4,67.8,29.79,SSW,202,2.2,-999.0,98,-99.99,,,0.00,Acu-Link.com,2013-08-24 06:42:00,
2013-08-24 02:57:00,68.2,67.6,29.79,SSW,202,0.0,-999.0,98,-99.99,,,0.00,Acu-Link.com,2013-08-24 06:57:00,
2013-08-24 03:12:00,67.8,67.2,29.79,NW,315,0.0,-999.0,98,-99.99,,,0.00,Acu-Link.com,2013-08-24 07:12:00,
2013-08-24 03:27:00,67.6,67.0,29.80,North,0,0.0,-999.0,98,-99.99,,,0.00,Acu-Link.com,2013-08-24 07:27:00,
2013-08-24 03:42:00,67.6,67.0,29.80,ESE,112,0.0,-999.0,98,-99.99,,,0.00,Acu-Link.com,2013-08-24 07:42:00,
2013-08-24 03:57:00,67.3,66.7,29.80,NNW,337,0.0,-999.0,98,-99.99,,,0.00,Acu-Link.com,2013-08-24 07:57:00,
2013-08-24 04:13:00,67.3,66.7,29.81,ESE,112,0.0,-999.0,98,-99.99,,,0.00,Acu-Link.com,2013-08-24 08:13:00,
2013-08-24 04:28:00,67.1,66.5,29.81,ENE,67,0.0,-999.0,98,-99.99,,,0.00,Acu-Link.com,2013-08-24 08:28:00,
2013-08-24 04:43:00,66.9,66.3,29.81,NNE,22,0.0,-999.0,98,-99.99,,,0.00,Acu-Link.com,2013-08-24 08:43:00,
2013-08-24 04:59:00,66.7,66.1,29.81,WNW,292,0.0,-999.0,98,-99.99,,,0.00,Acu-Link.com,2013-08-24 08:59:00,
2013-08-24 05:14:00,66.7,66.1,29.81,NNE,22,0.0,-999.0,98,-99.99,,,0.00,Acu-Link.com,2013-08-24 09:14:00,
2013-08-24 05:29:00,66.4,65.8,29.81,West,270,0.0,-999.0,98,-99.99,,,0.00,Acu-Link.com,2013-08-24 09:29:00,
2013-08-24 05:44:00,66.4,65.8,29.81,NNW,337,0.0,-999.0,98,-99.99,,,0.00,Acu-Link.com,2013-08-24 09:44:00,
2013-08-24 05:59:00,66.7,66.1,29.83,SSW,202,0.0,-999.0,98,-99.99,,,0.00,Acu-Link.com,2013-08-24 09:59:00,
2013-08-24 06:15:00,66.2,65.6,29.83,WNW,292,0.0,-999.0,98,-99.99,,,0.00,Acu-Link.com,2013-08-24 10:15:00,
2013-08-24 06:30:00,66.0,65.4,29.84,NNW,337,0.0,-999.0,98,-99.99,,,0.00,Acu-Link.com,2013-08-24 10:30:00,
2013-08-24 06:45:00,66.4,65.8,29.84,SSW,202,2.2,-999.0,98,-99.99,,,0.00,Acu-Link.com,2013-08-24 10:45:00,
2013-08-24 07:00:00,66.4,65.8,29.85,South,180,0.0,-999.0,98,-99.99,,,0.00,Acu-Link.com,2013-08-24 11:00:00,
2013-08-24 07:15:00,66.0,65.4,29.86,WNW,292,0.0,-999.0,98,-99.99,,,0.00,Acu-Link.com,2013-08-24 11:15:00,
2013-08-24 07:30:00,66.2,65.6,29.87,SSE,157,0.0,-999.0,98,-99.99,,,0.00,Acu-Link.com,2013-08-24 11:30:00,
2013-08-24 07:46:00,66.6,66.0,29.88,West,270,0.0,-999.0,98,-99.99,,,0.00,Acu-Link.com,2013-08-24 11:46:00,
2013-08-24 08:01:00,67.3,66.7,29.88,South,180,0.0,-999.0,98,-99.99,,,0.00,Acu-Link.com,2013-08-24 12:01:00,
2013-08-24 08:16:00,68.0,67.4,29.89,WNW,292,0.0,-999.0,98,-99.99,,,0.00,Acu-Link.com,2013-08-24 12:16:00,
2013-08-24 08:31:00,68.9,68.3,29.89,South,180,1.7,-999.0,98,-99.99,,,0.00,Acu-Link.com,2013-08-24 12:31:00,
2013-08-24 08:46:00,69.4,68.8,29.90,South,180,0.0,-999.0,98,-99.99,,,0.00,Acu-Link.com,2013-08-24 12:46:00,
2013-08-24 09:01:00,70.0,69.4,29.90,North,0,0.0,-999.0,98,-99.99,,,0.00,Acu-Link.com,2013-08-24 13:01:00,
2013-08-24 09:16:00,70.3,69.7,29.90,NNW,337,0.0,-999.0,98,-99.99,,,0.00,Acu-Link.com,2013-08-24 13:16:00,
2013-08-24 09:31:00,70.5,69.9,29.91,NNW,337,1.7,-999.0,98,-99.99,,,0.00,Acu-Link.com,2013-08-24 13:31:00,
2013-08-24 09:46:00,71.2,70.6,29.91,NW,315,0.0,-999.0,98,-99.99,,,0.00,Acu-Link.com,2013-08-24 13:46:00,
2013-08-24 10:02:00,72.5,71.9,29.91,West,270,0.0,-999.0,98,-99.99,,,0.00,Acu-Link.com,2013-08-24 14:02:00,
2013-08-24 10:17:00,72.3,71.7,29.92,ESE,112,0.0,-999.0,98,-99.99,,,0.00,Acu-Link.com,2013-08-24 14:17:00,
2013-08-24 10:32:00,73.4,72.8,29.92,NE,45,1.1,-999.0,98,-99.99,,,0.00,Acu-Link.com,2013-08-24 14:32:00,
2013-08-24 10:47:00,74.5,73.9,29.92,East,90,0.0,-999.0,98,-99.99,,,0.00,Acu-Link.com,2013-08-24 14:47:00,
2013-08-24 11:02:00,75.9,74.4,29.92,SE,135,1.7,-999.0,95,-99.99,,,0.00,Acu-Link.com,2013-08-24 15:02:00,
2013-08-24 11:17:00,77.0,74.8,29.91,SSE,157,0.0,-999.0,93,-99.99,,,0.00,Acu-Link.com,2013-08-24 15:17:00,
2013-08-24 11:32:00,78.6,75.4,29.92,East,90,4.2,-999.0,90,-99.99,,,0.00,Acu-Link.com,2013-08-24 15:32:00,
2013-08-24 11:48:00,79.5,76.0,29.91,ENE,67,3.7,-999.0,89,-99.99,,,0.00,Acu-Link.com,2013-08-24 15:48:00,
2013-08-24 12:03:00,80.1,75.9,29.91,WNW,292,0.0,-999.0,87,-99.99,,,0.00,Acu-Link.com,2013-08-24 16:03:00,
2013-08-24 12:18:00,81.1,76.9,29.91,East,90,1.7,-999.0,87,-99.99,,,0.00,Acu-Link.com,2013-08-24 16:18:00,
2013-08-24 12:33:00,80.2,76.0,29.91,NE,45,3.2,-999.0,87,-99.99,,,0.00,Acu-Link.com,2013-08-24 16:33:00,
2013-08-24 12:48:00,82.6,77.6,29.90,SE,135,2.7,-999.0,85,-99.99,,,0.00,Acu-Link.com,2013-08-24 16:48:00,
2013-08-24 13:03:00,82.8,77.1,29.90,SSW,202,5.8,-999.0,83,-99.99,,,0.00,Acu-Link.com,2013-08-24 17:03:00,
2013-08-24 13:18:00,81.7,76.7,29.90,East,90,4.2,-999.0,85,-99.99,,,0.00,Acu-Link.com,2013-08-24 17:18:00,
2013-08-24 13:33:00,82.9,76.8,29.90,SSE,157,0.0,-999.0,82,-99.99,,,0.00,Acu-Link.com,2013-08-24 17:33:00,
2013-08-24 13:48:00,84.0,77.5,29.89,ESE,112,2.7,-999.0,81,-99.99,,,0.00,Acu-Link.com,2013-08-24 17:48:00,
2013-08-24 14:04:00,86.5,79.2,29.89,SSW,202,2.7,-999.0,79,-99.99,,,0.00,Acu-Link.com,2013-08-24 18:04:00,
2013-08-24 14:19:00,84.7,78.2,29.88,NE,45,2.7,-999.0,81,-99.99,,,0.00,Acu-Link.com,2013-08-24 18:19:00,
2013-08-24 14:34:00,83.1,77.4,29.89,NE,45,1.1,-999.0,83,-99.99,,,0.00,Acu-Link.com,2013-08-24 18:34:00,
2013-08-24 14:49:00,85.8,78.9,29.88,SSW,202,2.7,-999.0,80,-99.99,,,0.00,Acu-Link.com,2013-08-24 18:49:00,
2013-08-24 15:04:00,87.3,79.2,29.88,NE,45,2.7,-999.0,77,-99.99,,,0.00,Acu-Link.com,2013-08-24 19:04:00,
2013-08-24 15:19:00,87.8,78.9,29.88,ESE,112,0.0,-999.0,75,-99.99,,,0.00,Acu-Link.com,2013-08-24 19:19:00,
2013-08-24 15:35:00,87.8,78.0,29.88,SSE,157,2.7,-999.0,73,-99.99,,,0.00,Acu-Link.com,2013-08-24 19:35:00,
2013-08-24 15:50:00,88.5,78.3,29.87,East,90,1.1,-999.0,72,-99.99,,,0.00,Acu-Link.com,2013-08-24 19:50:00,
2013-08-24 16:05:00,87.1,77.8,29.86,SE,135,2.7,-999.0,74,-99.99,,,0.00,Acu-Link.com,2013-08-24 20:05:00,
2013-08-24 16:20:00,86.7,77.4,29.87,South,180,2.7,-999.0,74,-99.99,,,0.00,Acu-Link.com,2013-08-24 20:20:00,
2013-08-24 16:35:00,87.8,78.0,29.86,SW,225,3.7,-999.0,73,-99.99,,,0.00,Acu-Link.com,2013-08-24 20:35:00,
2013-08-24 16:50:00,86.7,77.4,29.86,SE,135,4.2,-999.0,74,-99.99,,,0.00,Acu-Link.com,2013-08-24 20:50:00,
2013-08-24 17:05:00,87.3,77.6,29.86,SW,225,2.2,-999.0,73,-99.99,,,0.00,Acu-Link.com,2013-08-24 21:05:00,
2013-08-24 17:20:00,86.9,77.6,29.86,West,270,2.7,-999.0,74,-99.99,,,0.00,Acu-Link.com,2013-08-24 21:20:00,
2013-08-24 17:36:00,86.4,78.3,29.86,NW,315,0.0,-999.0,77,-99.99,,,0.00,Acu-Link.com,2013-08-24 21:36:00,
2013-08-24 17:51:00,88.3,77.2,29.86,SSE,157,1.7,-999.0,70,-99.99,,,0.00,Acu-Link.com,2013-08-24 21:51:00,
2013-08-24 18:06:00,86.7,77.8,29.86,SSE,157,4.7,-999.0,75,-99.99,,,0.00,Acu-Link.com,2013-08-24 22:06:00,
2013-08-24 18:21:00,84.9,77.3,29.86,SSW,202,3.7,-999.0,78,-99.99,,,0.00,Acu-Link.com,2013-08-24 22:21:00,
2013-08-24 18:36:00,83.5,76.7,29.85,SSW,202,4.7,-999.0,80,-99.99,,,0.00,Acu-Link.com,2013-08-24 22:36:00,
2013-08-24 18:51:00,83.7,76.9,29.85,SSW,202,4.2,-999.0,80,-99.99,,,0.00,Acu-Link.com,2013-08-24 22:51:00,
2013-08-24 19:06:00,82.9,76.8,29.85,SSW,202,2.7,-999.0,82,-99.99,,,0.00,Acu-Link.com,2013-08-24 23:06:00,
2013-08-24 19:22:00,82.9,77.9,29.86,NNW,337,0.0,-999.0,85,-99.99,,,0.00,Acu-Link.com,2013-08-24 23:22:00,
2013-08-24 19:37:00,81.7,77.8,29.87,NNW,337,0.0,-999.0,88,-99.99,,,0.00,Acu-Link.com,2013-08-24 23:37:00,
2013-08-24 19:52:00,80.2,77.0,29.86,ESE,112,0.0,-999.0,90,-99.99,,,0.00,Acu-Link.com,2013-08-24 23:52:00,
2013-08-24 20:07:00,79.5,77.0,29.87,East,90,0.0,-999.0,92,-99.99,,,0.00,Acu-Link.com,2013-08-25 00:07:00,
2013-08-24 20:22:00,79.0,76.8,29.89,ENE,67,0.0,-999.0,93,-99.99,,,0.00,Acu-Link.com,2013-08-25 00:22:00,
2013-08-24 20:37:00,79.0,76.5,29.89,East,90,0.0,-999.0,92,-99.99,,,0.00,Acu-Link.com,2013-08-25 00:37:00,
2013-08-24 20:52:00,78.4,76.2,29.90,NNE,22,1.7,-999.0,93,-99.99,,,0.00,Acu-Link.com,2013-08-25 00:52:00,
2013-08-24 21:07:00,77.9,76.3,29.90,NNE,22,2.2,-999.0,95,-99.99,,,0.00,Acu-Link.com,2013-08-25 01:07:00,
2013-08-24 21:22:00,77.5,76.3,29.92,ENE,67,5.3,-999.0,96,-99.99,,,0.00,Acu-Link.com,2013-08-25 01:22:00,
2013-08-24 21:37:00,75.9,75.3,29.93,ENE,67,3.2,-999.0,98,-99.99,,,0.00,Acu-Link.com,2013-08-25 01:37:00,
2013-08-24 21:53:00,74.3,73.7,29.94,East,90,3.7,-999.0,98,-99.99,,,0.01,Acu-Link.com,2013-08-25 01:53:00,
2013-08-24 22:08:00,73.2,72.6,29.93,North,0,2.2,-999.0,98,-99.99,,,0.01,Acu-Link.com,2013-08-25 02:08:00,
2013-08-24 22:23:00,73.0,72.4,29.94,NNE,22,1.1,-999.0,98,-99.99,,,0.03,Acu-Link.com,2013-08-25 02:23:00,
2013-08-24 22:38:00,73.0,72.4,29.95,NNW,337,0.0,-999.0,98,-99.99,,,0.03,Acu-Link.com,2013-08-25 02:38:00,
2013-08-24 22:53:00,72.9,72.3,29.94,NW,315,1.7,-999.0,98,-99.99,,,0.03,Acu-Link.com,2013-08-25 02:53:00,
2013-08-24 23:08:00,73.6,73.0,29.95,SW,225,2.7,-999.0,98,-99.99,,,0.03,Acu-Link.com,2013-08-25 03:08:00,
2013-08-24 23:23:00,73.0,72.4,29.95,SSW,202,0.0,-999.0,98,-99.99,,,0.03,Acu-Link.com,2013-08-25 03:23:00,
2013-08-24 23:38:00,73.2,72.6,29.95,South,180,3.2,-999.0,98,-99.99,,,0.03,Acu-Link.com,2013-08-25 03:38:00,
2013-08-24 23:53:00,74.5,73.9,29.96,SW,225,6.3,-999.0,98,-99.99,,,0.03,Acu-Link.com,2013-08-25 03:53:00,